• In Deutschland
  • Länderverzeichnis
  • Für 7 Tage
  • Wassertemperatur
  • Satellitenkarten
  • Wetterkarte
  • Widgets
  • user-avatar
    Anmelden

    Stündliche Wetter Kelkheim (Taunus)

    Heute, 19 Oktober, Donnerstag

    Zeit Temperatur Niederschläge Wind Luftdruck Luftfeuchtigkeit
    00:00 +13°C° 0 mm 1 m/S 742 mmHg 77%
    01:00 +13°C° 0 mm 1 m/S 742 mmHg 76%
    02:00 +12°C° 0 mm 1 m/S 741 mmHg 76%
    03:00 +12°C° 0 mm 1 m/S 741 mmHg 76%
    04:00 +12°C° 0 mm 1 m/S 741 mmHg 76%
    05:00 +11°C° 0 mm 1 m/S 741 mmHg 76%
    06:00 +11°C° 0 mm 1 m/S 741 mmHg 77%
    07:00 +11°C° 0 mm 1 m/S 741 mmHg 77%
    08:00 +13°C° 0 mm 1 m/S 741 mmHg 71%
    09:00 +15°C° 0 mm 1 m/S 741 mmHg 66%
    10:00 +16°C° 0 mm 1 m/S 741 mmHg 60%
    11:00 +18°C° 0 mm 2 m/S 741 mmHg 57%
    12:00 +19°C° 0 mm 2 m/S 741 mmHg 53%
    13:00 +21°C° 0 mm 3 m/S 741 mmHg 50%
    14:00 +21°C° 0 mm 2 m/S 741 mmHg 52%
    15:00 +21°C° 0 mm 2 m/S 741 mmHg 54%
    16:00 +20°C° 0 mm 2 m/S 740 mmHg 56%
    17:00 +19°C° 0 mm 2 m/S 740 mmHg 60%
    18:00 +17°C° 0 mm 2 m/S 741 mmHg 64%
    19:00 +16°C° 0 mm 1 m/S 741 mmHg 67%
    20:00 +16°C° 0 mm 1 m/S 741 mmHg 67%
    21:00 +15°C° 0 mm 1 m/S 741 mmHg 67%
    22:00 +15°C° 0 mm 1 m/S 741 mmHg 68%
    23:00 +15°C° 0 mm 1 m/S 741 mmHg 68%

    Morgen, 20 Oktober, Freitag

    Zeit Temperatur Niederschläge Wind Luftdruck Luftfeuchtigkeit
    00:00 +15°C° 0 mm 1 m/S 741 mmHg 68%
    01:00 +15°C° 0 mm 1 m/S 742 mmHg 68%
    02:00 +14°C° 0 mm 1 m/S 741 mmHg 69%
    03:00 +14°C° 0 mm 1 m/S 741 mmHg 70%
    04:00 +14°C° 0 mm 1 m/S 741 mmHg 71%
    05:00 +14°C° 0,1 mm 2 m/S 741 mmHg 73%
    06:00 +13°C° 0,1 mm 2 m/S 742 mmHg 74%
    07:00 +13°C° 0,1 mm 2 m/S 742 mmHg 76%
    08:00 +13°C° 1,2 mm 2 m/S 742 mmHg 79%
    09:00 +14°C° 1,2 mm 2 m/S 742 mmHg 82%
    10:00 +13°C° 1,2 mm 3 m/S 743 mmHg 85%
    11:00 +14°C° 0,4 mm 3 m/S 743 mmHg 83%
    12:00 +16°C° 0,4 mm 3 m/S 743 mmHg 81%
    13:00 +17°C° 0,4 mm 4 m/S 743 mmHg 79%
    14:00 +17°C° 0,1 mm 4 m/S 743 mmHg 78%
    15:00 +17°C° 0,1 mm 3 m/S 743 mmHg 77%
    16:00 +17°C° 0,1 mm 3 m/S 743 mmHg 76%
    17:00 +16°C° 0 mm 3 m/S 743 mmHg 80%
    18:00 +14°C° 0 mm 2 m/S 744 mmHg 84%
    19:00 +13°C° 0 mm 2 m/S 744 mmHg 88%
    20:00 +13°C° 0 mm 2 m/S 744 mmHg 89%
    21:00 +13°C° 0 mm 1 m/S 744 mmHg 90%
    22:00 +12°C° 0 mm 1 m/S 744 mmHg 91%
    23:00 +12°C° 0 mm 1 m/S 744 mmHg 91%

    übermorgen, 21 Oktober, Samstag

    Zeit Temperatur Niederschläge Wind Luftdruck Luftfeuchtigkeit
    00:00 +13°C° 0 mm 1 m/S 744 mmHg 91%
    01:00 +13°C° 0 mm 1 m/S 744 mmHg 91%
    02:00 +13°C° 0 mm 1 m/S 744 mmHg 91%
    03:00 +13°C° 0 mm 2 m/S 743 mmHg 90%
    04:00 +13°C° 0 mm 2 m/S 743 mmHg 89%
    05:00 +13°C° 0 mm 2 m/S 743 mmHg 89%
    06:00 +13°C° 0 mm 2 m/S 743 mmHg 89%
    07:00 +13°C° 0 mm 2 m/S 742 mmHg 88%
    08:00 +13°C° 0 mm 3 m/S 743 mmHg 84%
    09:00 +14°C° 0 mm 3 m/S 743 mmHg 79%
    10:00 +17°C° 0 mm 4 m/S 743 mmHg 75%
    11:00 +17°C° 0,1 mm 4 m/S 743 mmHg 74%
    12:00 +17°C° 0,1 mm 4 m/S 742 mmHg 74%
    13:00 +18°C° 0,1 mm 4 m/S 742 mmHg 74%
    14:00 +17°C° 1,2 mm 4 m/S 742 mmHg 78%
    15:00 +15°C° 1,2 mm 4 m/S 742 mmHg 83%
    16:00 +14°C° 1,2 mm 4 m/S 742 mmHg 87%
    17:00 +13°C° 0,4 mm 4 m/S 743 mmHg 87%
    18:00 +13°C° 0,4 mm 4 m/S 743 mmHg 86%
    19:00 +12°C° 0,4 mm 4 m/S 743 mmHg 85%
    20:00 +12°C° 0 mm 4 m/S 744 mmHg 85%
    21:00 +11°C° 0 mm 4 m/S 744 mmHg 84%
    22:00 +11°C° 0 mm 4 m/S 744 mmHg 84%
    23:00 +10°C° 0 mm 4 m/S 744 mmHg 84%

    22 Oktober, Sonntag

    Zeit Temperatur Niederschläge Wind Luftdruck Luftfeuchtigkeit
    00:00 +10°C° 0 mm 4 m/S 744 mmHg 84%
    01:00 +10°C° 0 mm 4 m/S 744 mmHg 83%
    02:00 +8°C° 0 mm 4 m/S 744 mmHg 84%
    03:00 +8°C° 0 mm 4 m/S 744 mmHg 84%
    04:00 +8°C° 0 mm 4 m/S 744 mmHg 84%
    05:00 +7°C° 0 mm 4 m/S 744 mmHg 85%
    06:00 +7°C° 0 mm 4 m/S 744 mmHg 85%
    07:00 +7°C° 0 mm 4 m/S 744 mmHg 85%
    08:00 +7°C° 0 mm 5 m/S 744 mmHg 82%
    09:00 +8°C° 0 mm 5 m/S 744 mmHg 78%
    10:00 +8°C° 0 mm 5 m/S 744 mmHg 74%
    11:00 +9°C° 0 mm 5 m/S 744 mmHg 73%
    12:00 +9°C° 0 mm 5 m/S 744 mmHg 72%
    13:00 +9°C° 0 mm 5 m/S 744 mmHg 72%
    14:00 +9°C° 0,1 mm 5 m/S 744 mmHg 72%
    15:00 +9°C° 0,1 mm 5 m/S 744 mmHg 72%
    16:00 +9°C° 0,1 mm 5 m/S 744 mmHg 72%
    17:00 +10°C° 0,1 mm 4 m/S 745 mmHg 75%
    18:00 +8°C° 0,1 mm 4 m/S 745 mmHg 78%
    19:00 +7°C° 0,1 mm 4 m/S 745 mmHg 81%
    20:00 +7°C° 0,2 mm 4 m/S 745 mmHg 82%
    21:00 +7°C° 0,2 mm 4 m/S 745 mmHg 84%
    22:00 +7°C° 0,2 mm 4 m/S 746 mmHg 85%
    23:00 +7°C° 0,3 mm 4 m/S 746 mmHg 86%

    23 Oktober, Montag

    Zeit Temperatur Niederschläge Wind Luftdruck Luftfeuchtigkeit
    00:00 +7°C° 0,3 mm 4 m/S 746 mmHg 86%
    01:00 +8°C° 0,3 mm 4 m/S 746 mmHg 87%
    02:00 +8°C° 0,3 mm 4 m/S 746 mmHg 87%
    03:00 +8°C° 0,3 mm 4 m/S 746 mmHg 87%
    04:00 +8°C° 0,3 mm 4 m/S 746 mmHg 87%
    05:00 +8°C° 0,1 mm 4 m/S 746 mmHg 87%
    06:00 +7°C° 0,1 mm 4 m/S 747 mmHg 87%
    07:00 +8°C° 0,1 mm 3 m/S 747 mmHg 88%
    08:00 +9°C° 0 mm 3 m/S 748 mmHg 85%
    09:00 +10°C° 0 mm 3 m/S 748 mmHg 83%
    10:00 +10°C° 0 mm 3 m/S 749 mmHg 80%
    11:00 +11°C° 0 mm 3 m/S 749 mmHg 79%
    12:00 +11°C° 0 mm 4 m/S 749 mmHg 78%
    13:00 +12°C° 0 mm 4 m/S 749 mmHg 77%
    14:00 +12°C° 0,1 mm 4 m/S 749 mmHg 79%
    15:00 +12°C° 0,1 mm 3 m/S 749 mmHg 81%
    16:00 +11°C° 0,1 mm 3 m/S 749 mmHg 83%
    17:00 +11°C° 0,2 mm 3 m/S 749 mmHg 85%
    18:00 +11°C° 0,2 mm 3 m/S 749 mmHg 87%
    19:00 +10°C° 0,2 mm 3 m/S 750 mmHg 89%
    20:00 +10°C° 0 mm 2 m/S 750 mmHg 89%
    21:00 +10°C° 0 mm 2 m/S 750 mmHg 90%
    22:00 +9°C° 0 mm 2 m/S 750 mmHg 91%
    23:00 +9°C° 0 mm 2 m/S 750 mmHg 91%

    24 Oktober, Dienstag

    Zeit Temperatur Niederschläge Wind Luftdruck Luftfeuchtigkeit
    00:00 +9°C° 0 mm 2 m/S 750 mmHg 91%
    01:00 +9°C° 0 mm 2 m/S 750 mmHg 91%
    02:00 +9°C° 0 mm 2 m/S 750 mmHg 91%
    03:00 +9°C° 0 mm 2 m/S 750 mmHg 91%
    04:00 +9°C° 0 mm 2 m/S 750 mmHg 91%
    05:00 +9°C° 0 mm 2 m/S 750 mmHg 90%
    06:00 +9°C° 0 mm 2 m/S 750 mmHg 89%
    07:00 +9°C° 0 mm 2 m/S 750 mmHg 89%
    08:00 +10°C° 0 mm 2 m/S 750 mmHg 85%
    09:00 +12°C° 0 mm 2 m/S 750 mmHg 82%
    10:00 +12°C° 0 mm 2 m/S 751 mmHg 79%
    11:00 +14°C° 0 mm 2 m/S 750 mmHg 75%
    12:00 +15°C° 0 mm 2 m/S 750 mmHg 70%
    13:00 +16°C° 0 mm 2 m/S 750 mmHg 66%
    14:00 +16°C° 0 mm 2 m/S 750 mmHg 67%
    15:00 +16°C° 0 mm 2 m/S 749 mmHg 67%
    16:00 +16°C° 0 mm 2 m/S 749 mmHg 68%
    17:00 +15°C° 0 mm 2 m/S 749 mmHg 72%
    18:00 +14°C° 0 mm 2 m/S 749 mmHg 76%
    19:00 +13°C° 0 mm 1 m/S 749 mmHg 80%
    20:00 +12°C° 0 mm 1 m/S 749 mmHg 80%
    21:00 +12°C° 0 mm 1 m/S 749 mmHg 81%
    22:00 +12°C° 0 mm 1 m/S 750 mmHg 82%
    23:00 +11°C° 0 mm 1 m/S 749 mmHg 82%
    Mehr zeigen